Location: La Fredeussais
(48.1780°N, 1.3980°W)
Time: 09:46:18
(UTC+00:00)

Cosmos 1709 Rocket - Pass Details

Date: 09 May 2021
Orbit: 947 x 1002 km, 82.9° (Epoch: 12 June)

Event Time Altitude Azimuth Distance (km) Brightness Sun altitude
Rises 20:10:43 0° 354° (N) 3,643 7.7 -6.5°
Reaches altitude 10° 20:13:22 10° 1° (N) 2,688 6.8 -6.9°
Maximum altitude 20:19:13 45° 74° (ENE) 1,277 4.4 -7.6°
Drops below altitude 10° 20:25:00 10° 146° (SE) 2,666 5.7 -8.4°
Enters shadow 20:25:22 - 147° (SSE) 2,793 5.8 -8.4°
